User: anonymous   Login
Location: Unspecified
(48.5670°N, 0.0000°E)
Time: 12:01:09
(UTC+00:00)
Language:

Transit 4A - Orbit

View from above orbital plane
View from above orbital plane
View from above satellite
View from above satellite

Ground track
Ground track

The orbit data is extracted from the following two-line orbital elements,

1   116U 61015A   20296.16345383 -.00000033  00000-0  34009-4 0  9990
2   116  66.8089 258.4541 0082424 279.0771  80.0988 13.91776655  9933
Epoch (UTC): 22 October 2020 03:55:22
Eccentricity: 0.0082424
inclination: 66.8089°
perigee height: 862 km
apogee height: 982 km
right ascension of ascending node: 258.4541°
argument of perigee: 279.0771°
revolutions per day: 13.91776655
mean anomaly at epoch: 80.0988°
orbit number at epoch: 993

The dashed part of the orbit path shows where the satellite is in the earth's shadow,  

DLR